Location: Street
(51.1247°N, 2.7429°W)
Time: 08:50:55
(UTC+01:00)

UWE-3 - Pass Details

Date: 08 April 2023
Orbit: 576 x 669 km, 97.7° (Epoch: 02 June)

Event Time Altitude Azimuth Distance (km) Brightness Sun altitude
Rises 03:06:34 0° 26° (NNE) 2,944 ? -26.9°
Reaches altitude 10° 03:09:24 10° 44° (NE) 2,011 ? -26.7°
Maximum altitude 03:12:30 19° 90° (E) 1,488 ? -26.4°
Enters shadow 03:14:03 16° 117° (ESE) 1,617 ? -26.3°
